{"data":{"norad_id":69635,"intl_designator":"2026-128K","name":"ZHUQUE-2E DEB","alt_names":[],"object_type":"DEBRIS","status":"UNKNOWN","operator":null,"country":"PRC","launch_date":"2026-06-09","launch_site_code":"JSC","launch_vehicle":null,"mission":null,"orbit_class":"UNKNOWN","rcs_meters":null,"size_class":null,"mass_kg":null,"dimensions":null,"purposes":[],"wikipedia_slug":null,"has_3d_model":false,"image_url":null,"decayed_at":null,"tle_current":{"epoch":"2026-07-01T14:07:42.568032Z","epoch_age_seconds":7020856,"freshness":"OLD","line1":"1 69635U 26128K   26182.58868713  .07777062  11762-4  46833-2 0  9996","line2":"2 69635  54.5278 233.2629 0036410  32.0330 328.2929 16.15961564  3039","mean_motion":16.15961564,"eccentricity":0.003641,"inclination_deg":54.5278,"raan_deg":233.2629,"arg_perigee_deg":32.033,"mean_anomaly_deg":328.2929,"bstar":0.0046833,"rev_number":303,"period_min":89.111030366066,"perigee_km":206.47726054484,"apogee_km":254.60164246469,"semimajor_km":6608.6764515048,"source":"CELESTRAK","updated_at":"2026-07-03T09:00:27.527007Z"}}}